NOAA-14
1 23455U 94089A   04281.52006802  .00000390  00000-0  23186-3 0  3042
2 23455  99.1280 319.2620 0009250 357.3409   2.7713 14.13495133503800
SICH-1
1 23657U 95046A   04281.22176549  .00000399  00000-0  48416-4 0  2540
2 23657  82.5257 274.0173 0022620 232.2061 127.7104 14.80930502490519
NOAA-15
1 25338U 98030A   04281.48461747  .00000048  00000-0  39000-4 0  7555
2 25338  98.5200 291.4774 0010999  21.8563 338.3084 14.24455237332772
RESURS
1 25394U 98043A   04281.90016785  .00000021  00000-0  27695-4 0  9185
2 25394  98.5714 351.8896 0002090 141.8518 218.2809 14.24025725324548
FENGYUN1
1 25730U 99025A   04281.47738427 -.00000258  00000-0 -11855-3 0  2509
2 25730  98.6065 287.4260 0015546 100.9050 259.3873 14.11778967278856
OKEAN-0
1 25860U 99039A   04281.56900273  .00000141  00000-0  29258-4 0  2582
2 25860  97.7879 312.2129 0001011  40.5827 319.5456 14.73122451280811
NOAA-16
1 26536U 00055A   04281.49510619  .00000420  00000-0  25308-3 0   518
2 26536  98.9754 232.9922 0011271  63.3013 296.9305 14.12160206208392
NOAA-17
1 27453U 02032A   04281.48160932  .00000014  00000-0  25451-4 0   768
2 27453  98.6897 352.4747 0012636  70.9396 289.3150 14.23576187118882
HUBBLE
1 20580U 90037B   04280.88293501  .00001102  00000-0  74869-4 0  1729
2 20580  28.4655 118.8179 0003566 111.4260 248.6710 14.99335269592181
UARS
1 21701U 91063B   04281.71100619  .00000194  00000-0  32698-4 0  2821
2 21701  56.9788 133.3782 0004367 111.4335 248.7090 15.03633532715511
PO-34
1 25520U 98064B   04280.21113027  .00001360  00000-0  59471-4 0   263
2 25520  28.4602 209.7069 0005571 344.9722  15.0712 15.15771654328001
ISS
1 25544U 98067A   04281.97340521  .00016355  00000-0  14432-3 0  8598
2 25544  51.6349 110.1997 0009656 197.6066 298.1431 15.68812867336034
OO-38
1 26063U 00004C   04280.52376664  .00000065  00000-0  42768-4 0  1785
2 26063 100.2265  87.8695 0037264  49.2856 311.1550 14.35671213245891
NO-45
1 26932U 01043D   04281.49724303 -.00000064  00000-0  71617-5 0  8635
2 26932  67.0575 158.2226 0005873 287.1525  72.8932 14.29444525157681
